This is the latest recevied weather packets stored in our database for station/object KE8DAF-15. If no packets are shown the sender has not sent any weather packets the latest 10 day(s).
| Time | Temp. | Humidity | Pressure | Rain* | Wind** | Luminosity | Snow |
|---|---|---|---|---|---|---|---|
| 1777059878 | 10° C | 55% | 993.8 hPa | 0 mm | - | - | - |
| 1777059578 | 10° C | 54% | 994.1 hPa | 0 mm | - | - | - |
| 1777059278 | 10.56° C | 55% | 994.1 hPa | 0 mm | - | - | - |
| 1777058978 | 10.56° C | 54% | 994 hPa | 0 mm | - | - | - |
| 1777058678 | 10.56° C | 53% | 994.1 hPa | 0 mm | - | - | - |
| 1777058378 | 10.56° C | 54% | 993.9 hPa | 0 mm | - | - | - |
| 1777058078 | 10.56° C | 53% | 994 hPa | 0 mm | - | - | - |
| 1777057778 | 10.56° C | 54% | 994.1 hPa | 0 mm | - | - | - |
| 1777057478 | 10.56° C | 55% | 994 hPa | 0 mm | - | - | - |
| 1777057178 | 10° C | 55% | 994 hPa | 0 mm | - | - | - |
| 1777056878 | 10° C | 55% | 994.1 hPa | 0 mm | - | - | - |
| 1777056578 | 10° C | 55% | 994.2 hPa | 0 mm | - | - | - |
| 1777056278 | 10.56° C | 53% | 994.3 hPa | 0 mm | - | - | - |
| 1777055978 | 11.11° C | 53% | 994.3 hPa | 0 mm | - | - | - |
| 1777055678 | 11.11° C | 52% | 994.4 hPa | 0 mm | - | - | - |
| 1777055379 | 11.11° C | 53% | 994.2 hPa | 0 mm | - | - | - |
| 1777055078 | 11.67° C | 51% | 994.5 hPa | 0 mm | - | - | - |
| 1777054778 | 11.67° C | 52% | 994.5 hPa | 0 mm | - | - | - |
| 1777054478 | 11.67° C | 52% | 994.5 hPa | 0 mm | - | - | - |
| 1777054179 | 12.22° C | 51% | 994.5 hPa | 0 mm | - | - | - |
| 1777053878 | 12.78° C | 52% | 994.4 hPa | 0 mm | - | - | - |
| 1777053579 | 12.78° C | 51% | 994.1 hPa | 0 mm | - | - | - |
| 1777053279 | 12.22° C | 51% | 994.3 hPa | 0 mm | - | - | - |
| 1777052979 | 12.22° C | 52% | 994.4 hPa | 0 mm | - | - | - |
| 1777052679 | 12.22° C | 51% | 994.5 hPa | 0 mm | - | - | - |
* Rain latest hour (hover to see other rain measurements)
** Current wind speed in m/s (hover to see current wind gust speed)